Voltar ao catálogo

FENGYUN 1C DEB

AtivoSSO
NORAD 33731·DEBRIS·🇨🇳 China

Lançado May 10, 1999 de Taiyuan Satellite Launch Center

Loading…

Próximas Passagens (próximas 24 horas)

TLE

AtualizadoSource: Space-Track

Época: Sep 14, 2026, 13:05 UTC

1 33731U 99025DHU 26257.54523897  .00000972  00000-0  68861-3 0  9997
2 33731  99.4288 291.4645 0128386  27.9249 332.8725 13.96393080942974

Acompanhe FENGYUN 1C DEB em tempo real com AllMySat

Download on the App Store